Weather History for Millville, NJ

Change the Weather History Date:

Monday, November 19, 2012

  Actual Average Record
Temperature  
Mean Temperature 48 °F -  
Max Temperature 53 °F 54 °F 71 °F (1985)
Min Temperature 42 °F 35 °F 19 °F (2005)
Degree Days  
Heating Degree Days 18    
Moisture  
Dew Point 40 °F    
Average Humidity 77    
Maximum Humidity 87    
Minimum Humidity 64    
Precipitation  
Precipitation 0.00 in - - ()
Sea Level Pressure  
Sea Level Pressure 30.34 in    
Wind  
Wind Speed 10 mph (NNE)    
Max Wind Speed 15 mph    
Max Gust Speed 18 mph    
Visibility 10 miles    
Events      
Averages and records for this station are not official NWS values.
T = Trace of Precipitation, MM = Missing Value Source: NWS Daily Summary

Daily Weather History Graph

Daily Weather History Graph

Search for Another Location

Airport:

Trip Planner

Search our weather history database for the weather conditions in past years. The results will help you decide how hot, cold, wet, or windy it might be!

Date:

Astronomy

Nov. 19, 2012 Rise Set
Actual Time 6:49 AM EST 4:42 PM EST
Civil Twilight 6:19 AM EST 5:11 PM EST
Nautical Twilight 5:47 AM EST 5:43 PM EST
Astronomical Twilight 5:15 AM EST 6:15 PM EST
Moon 11:51 AM EST (11/19) 11:05 PM EST (11/19)
Length of Visible Light 10h 51m
Length of Day
9h 53m
Waxing Crescent, 40% of the Moon is Illuminated
Nov 19
Waxing Crescent
Nov 20
First Quarter
Nov 28
Full
Dec 6
Last Quarter
Dec 13
New

Hourly Weather History & Observations

Time (EST) Temp. Windchill Dew Point Humidity Pressure Visibility Wind Dir Wind Speed Gust Speed Precip Events Conditions
12:54 AM 43.0 °F 37.7 °F 37.0 °F 80% 30.46 in 10.0 mi NNE 9.2 mph - N/A   Clear
1:54 AM 43.0 °F 38.2 °F 37.0 °F 80% 30.46 in 10.0 mi NNE 8.1 mph - N/A   Clear
2:54 AM 42.1 °F 36.6 °F 37.0 °F 82% 30.45 in 10.0 mi NNE 9.2 mph - N/A   Clear
3:54 AM 42.1 °F 35.7 °F 37.0 °F 82% 30.43 in 10.0 mi NNE 11.5 mph - N/A   Clear
4:54 AM 42.1 °F 36.6 °F 37.9 °F 85% 30.43 in 10.0 mi NNE 9.2 mph - N/A   Clear
5:54 AM 42.1 °F 36.6 °F 37.9 °F 85% 30.43 in 10.0 mi NNE 9.2 mph - N/A   Mostly Cloudy
6:54 AM 42.1 °F 35.7 °F 37.9 °F 85% 30.43 in 10.0 mi NNE 11.5 mph - N/A   Overcast
7:54 AM 42.1 °F 36.1 °F 37.9 °F 85% 30.42 in 10.0 mi NNE 10.4 mph - N/A   Overcast
8:54 AM 43.0 °F 37.7 °F 39.0 °F 86% 30.41 in 10.0 mi NE 9.2 mph - N/A   Overcast
9:54 AM 45.0 °F 40.1 °F 39.0 °F 80% 30.41 in 10.0 mi NNE 9.2 mph - N/A   Overcast
10:54 AM 46.0 °F 41.0 °F 39.9 °F 79% 30.38 in 10.0 mi NNE 10.4 mph - N/A   Overcast
11:54 AM 48.9 °F - 41.0 °F 74% 30.35 in 10.0 mi NNE 12.7 mph 18.4 mph N/A   Mostly Cloudy
12:01 PM 48.2 °F - 41.0 °F 76% 30.35 in 10.0 mi NNE 11.5 mph - N/A   Scattered Clouds
12:54 PM 51.1 °F - 41.0 °F 68% 30.33 in 10.0 mi NE 13.8 mph - N/A   Clear
1:54 PM 53.1 °F - 41.0 °F 64% 30.31 in 10.0 mi North 8.1 mph - N/A   Clear
2:54 PM 53.1 °F - 42.1 °F 66% 30.29 in 10.0 mi NNE 9.2 mph - N/A   Scattered Clouds
3:06 PM 53.6 °F - 42.8 °F 67% 30.29 in 10.0 mi NE 15.0 mph - N/A   Mostly Cloudy
3:54 PM 52.0 °F - 43.0 °F 71% 30.30 in 10.0 mi ENE 10.4 mph - N/A   Overcast
4:54 PM 51.1 °F - 42.1 °F 71% 30.28 in 10.0 mi NE 11.5 mph - N/A   Overcast
5:54 PM 50.0 °F - 41.0 °F 71% 30.28 in 10.0 mi NNE 9.2 mph - N/A   Overcast
6:07 PM 50.0 °F - 41.0 °F 71% 30.28 in 10.0 mi NE 8.1 mph - N/A   Overcast
6:54 PM 48.9 °F - 39.9 °F 71% 30.27 in 10.0 mi NNE 11.5 mph - N/A   Overcast
7:54 PM 48.0 °F - 41.0 °F 77% 30.27 in 10.0 mi NE 9.2 mph - N/A   Overcast
8:54 PM 48.0 °F - 41.0 °F 77% 30.25 in 10.0 mi NE 9.2 mph - N/A   Overcast
10:54 PM 46.9 °F - 41.0 °F 80% 30.23 in 10.0 mi NNE 10.4 mph - N/A   Overcast
11:49 PM 46.4 °F 41.5 °F 42.8 °F 87% 30.22 in 10.0 mi NE 10.4 mph - N/A   Overcast
11:54 PM 46.9 °F - 42.1 °F 83% 30.22 in 10.0 mi NE 9.2 mph - N/A   Overcast